Regional Weather Roundup
Issued by NWS

Home | Current Version | Previous Version | Graphics & Text | Print | Product List | Glossary On
Versions: 1 2 3 4 5 6 7 8 9 10 11 12 13 14 15 16 17 18 19 20 21 22 23 24 25 26 27 28 29 30 31 32 33 34 35 36 37 38 39 40 41 42 43 44 45 46 47 48 49 50
000
ASUS43 KMKX 230811
RWRWI

WISCONSIN REGIONAL WEATHER ROUNDUP
NATIONAL WEATHER SERVICE MILWAUKEE/SULLIVAN WI
300 AM CDT WED JUL 23 2014

NOTE: "FAIR" INDICATES FEW OR NO CLOUDS BELOW 12,000 FEET WITH NO
SIGNIFICANT WEATHER AND/OR OBSTRUCTIONS TO VISIBILITY.

WIZ001-002-006>008-014>016-023>028-230900-
NORTHWEST WISCONSIN

CITY           SKY/WX    TMP DP  RH WIND       PRES   REMARKS
SUPERIOR ARPT  PTCLDY    53  53  97 CALM      30.17S
ASHLAND        CLEAR     56  54  93 W3        30.17S
HAYWARD        FOG       52  52 100 CALM      30.19S VSB 3/4
SIREN          CLEAR     56  54  92 CALM      30.19S
RICE LAKE      CLEAR     57  56  95 CALM      30.20R
LADYSMITH      CLEAR     59  57  94 CALM      30.20S
EAU CLAIRE     CLEAR     60  59  96 N3        30.16S
MENOMONIE      SUNNY     62  59  92 NW3       30.18R
NEW RICHMOND   CLEAR     60  58  94 N3        30.19S
OSCEOLA        CLEAR     58  57  95 CALM      30.21S
$$

WIZ003>005-009-010-017-018-230900-
NORTH CENTRAL WISCONSIN

CITY           SKY/WX    TMP DP  RH WIND       PRES   REMARKS
WOODRUFF       FOG       52  49  89 CALM      30.18R VSB 3/4
RHINELANDER    CLEAR     55  54  96 CALM      30.18R
EAGLE RIVER    FOG       50  50 100 CALM      30.17S VSB 1/2
LAND O LAKES   CLEAR     47  47  99 CALM      30.19S FOG
PHILLIPS       CLEAR     53  53  99 CALM      30.17S
TOMAHAWK       CLEAR     49  47  95 CALM      30.18R
MEDFORD          N/A     53  53  98 CALM      30.17S FOG
MERRILL        CLEAR     52  52  99 CALM      30.17S
$$

WIZ029-030-035-036-043>047-230900-
CENTRAL WISCONSIN

CITY           SKY/WX    TMP DP  RH WIND       PRES   REMARKS
WAUSAU         CLEAR     59  56  89 N3        30.16R
MOSINEE        CLEAR     59  57  94 N5        30.17S
MARSHFIELD     CLEAR     60  57  89 N3        30.17R
STEVENS POINT  CLEAR     56  55  97 CALM      30.16S
WAUPACA        CLEAR     60  58  93 N3        30.15R
WAUTOMA        CLEAR     60  57  89 N3        30.15R
WISC RAPIDS    CLEAR     62  58  86 NE6       30.17R
CAMP DOUGLAS   CLEAR     55  55 100 N2        30.16R
$$

WIZ011>013-019>022-031-037>040-048>050-230900-
NORTHEAST WISCONSIN

CITY           SKY/WX    TMP DP  RH WIND       PRES   REMARKS
ANTIGO         CLEAR     53  53  99 CALM      30.17R
STURGEON BAY   PTCLDY    61  54  77 N14       30.12S
GREEN BAY      CLEAR     59  56  89 N6        30.13R
MANITOWOC      CLEAR     60  56  86 N6        30.11S
APPLETON       PTCLDY    59  54  82 N8        30.14S
CLINTONVILLE   PTCLDY    55  54  94 CALM      30.14S
OSHKOSH        PTCLDY    63  56  78 N8        30.12S
$$

WIZ032>034-041-042-053>061-230900-
SOUTHWEST WISCONSIN

CITY           SKY/WX    TMP DP  RH WIND       PRES   REMARKS
LA CROSSE      CLEAR     68  58  70 NE7       30.14S
SPARTA         CLEAR     58  56  92 CALM      30.16S
VIROQUA        FAIR      62  58  88 NE5       30.17R
BOSCOBEL       CLEAR     66  60  81 CALM      30.13S
PRAIRIE DU CHI CLEAR     69  58  67 N5        30.13R
PLATTEVILLE    FAIR      65  61  87 N8        30.12S
$$

WIZ056-057-062-063-064-067-068-230900-
SOUTH CENTRAL WISCONSIN

CITY           SKY/WX    TMP DP  RH WIND       PRES   REMARKS
BARABOO/DELLS  CLEAR     63  57  81 NE3       30.14S
LONE ROCK      CLEAR     69  59  70 NE6       30.13S
WATERTOWN      CLEAR     64  60  85 N7        30.11R
MADISON        CLEAR     64  58  80 N8        30.13R
MIDDLETON      FAIR      65  58  78 N8        30.13S
MONROE         CLEAR     66  61  82 N14       30.10S
JANESVILLE     MOCLDY    70  59  68 NE10      30.09R
$$

WIZ051-052-058>065-066-070>072-230900-
SOUTHEAST WISCONSIN

CITY           SKY/WX    TMP DP  RH WIND       PRES   REMARKS
MILWAUKEE      PTCLDY    60  56  86 N10       30.09S
WAUKESHA       PTCLDY    61  54  77 NE6       30.12R
MILWAUKEE/TIMM CLEAR     61  54  77 NE8       30.11R
RACINE         PTCLDY    63  56  78 N12       30.11R
BURLINGTON     PTCLDY    61  56  83 N6        30.10R
KENOSHA        PTCLDY    64  57  78 NE10G21   30.09R
FOND DU LAC    MOCLDY    65  55  70 NE9       30.12S
SHEBOYGAN      CLEAR     57  54  89 N5        30.10F
WEST BEND      CLEAR     61  54  77 N3        30.11S
JUNEAU         CLEAR     63  56  77 N7        30.13R
$$

LSZ147-162-230900-
LAKE SUPERIOR

STATION/POSITION TIME  TEMP    WIND        PRES    WAVE
                       AIR SEA DIR/SP/G            HT/PER
                 (UTC) (F)     (DEG/KT/KT) (MB)    (FT/S)
W MID LAKE BUOY  0750   49 39  100/  4/  4 1021.7F   1
PORT WING        0700   58     150/  2/  3 1021.7R
SAXON HARBOR     0700             CALM     1021.3
$$

LMZ867-665-643>646-230900-
LAKE MICHIGAN

STATION/POSITION TIME  TEMP    WIND        PRES    WAVE
                       AIR SEA DIR/SP/G            HT/PER
                 (UTC) (F)     (DEG/KT/KT) (MB)    (FT/S)
N MID LAKE BUOY  0750   55 51  330/ 12/ 12 1018.4R   2/ 5
NORTHPORT PIER   0700   62     360/ 18/ 22 1019.3R
KEWAUNEE LAKESHO 0700   59      10/  2/  3 1020.1R
SHEBOYGAN LAKESH 0800   58      10/ 15/ 16 1019.5S
PORT WASHINGTON  0740   62      20/  5/ 12 1019.6R
ATWATER BUOY     0800   51     340/  6     1020.1R
MILWAUKEE LAKESH 0700           20/ 15/ 19   N/A
S MID LAKE BUOY  0750   63 60  350/ 21/ 25 1016.3F   6/ 6
KENOSHA   LAKESH 0800   59      10/ 18/ 20   N/A
$$

TC  - TEMPERATURE IN CELSIUS
VSB - VISIBILITY IN STATUTE MILES
WCI - WIND CHILL INDEX
HX  - HEAT INDEX



USA.gov is the U.S. government's official web portal to all federal, state and local government web resources and services.